Preview of NWS' New Version of Forecast
This preview is not operational and should not be used for support decisions.

Regional Weather Roundup (RWR)

Issued by National Weather Service (NWS)

                            
000
ASUS46 KSEW 182110
RWRWA 

WASHINGTON REGIONAL WEATHER ROUNDUP
NATIONAL WEATHER SERVICE SEATTLE WA
200 PM PDT THU APR 18 2019

NOTE:"FAIR" INDICATES FEW OR NO CLOUDS BELOW 12,000 FEET WITH NO 
SIGNIFICANT WEATHER AND/OR OBSTRUCTIONS TO VISIBILITY.

WAZ507-509-555>559-182200-
SEATTLE, TACOMA, EVERETT, AND VICINITY
  
CITY           SKY/WX    TMP DP  RH WIND       PRES   REMARKS
EVERETT        CLOUDY    60  46  59 S12G23    30.17F                  
BOEING FIELD   CLOUDY    63  46  54 S7        30.18F                  
RENTON         CLOUDY    63  45  51 S7        30.18F                  
SEATAC AIRPORT CLOUDY    61  46  57 S12       30.18F                  
JBLM-MCCHORD   CLOUDY    61  55  82 NW3       30.19F                  
PUYALLUP       CLOUDY    64  46  52 CALM      30.19F                  
BREMERTON      FAIR      59  50  72 SW13      30.18F                  
JBLM-FT LEWIS  CLOUDY    61  57  85 CALM      30.18F                  
TACOMA NARROWS CLOUDY    58  50  75 S3        30.20F                  
$$
 
WAZ001-503-506-510-514-515-182200-
NORTH INTERIOR
  
CITY           SKY/WX    TMP DP  RH WIND       PRES   REMARKS
BELLINGHAM     LGT RAIN  58  47  66 E3        30.16F                  
FRIDAY HARBOR  CLOUDY    55  48  77 E5        30.15F                  
EASTSOUND      CLOUDY    55  50  82 S6        30.14F HAZE             
PORT ANGELES   PTSUNNY   54  51  90 NW3       30.15F                  
EDIZ HOOK      CLOUDY    52  50  94 NW7       30.15F                  
PORT TOWNSEND  LGT RAIN  59  54  82 VRB3      30.12F                  
NAS WHIDBEY    CLOUDY    63  49  60 SE14G22   30.18F                  
ARLINGTON      CLOUDY    58  46  64 E9        30.18F                  
BURLINGTON     CLOUDY    61  48  63 SE9G18    30.16F                  
$$
 
WAZ020-022-039-040-504-511-512-182200-
SOUTHWEST INTERIOR
  
CITY           SKY/WX    TMP DP  RH WIND       PRES   REMARKS
SHELTON        CLOUDY    59  51  75 SW9       30.17F                  
OLYMPIA        CLOUDY    61  47  59 SW5       30.19F                  
CHEHALIS       CLOUDY    68  54  60 CALM      30.18F                  
KELSO          FAIR      69  49  48 S6        30.18F                  
VANCOUVER      FAIR      69  49  48 SW3       30.17F                  
SCAPPOOSE, OR  FAIR      69  52  54 SE6       30.16F                  
PORTLAND, OR   PTSUNNY   71  48  43 NE5       30.17F                  
$$
 
WAZ021-516-517-182200-
WASHINGTON COAST
  
CITY           SKY/WX    TMP DP  RH WIND       PRES   REMARKS
FORKS          CLOUDY    52  52 100 VRB7      30.15F                  
HOQUIAM        CLOUDY    57  53  86 W5        30.19F                  
ASTORIA, OR    PTSUNNY   62  51  67 SW10      30.18F                  
$$
 
WAZ019-023-024-040-567>569-182200-
CASCADE MOUNTAINS AND COLUMBIA GORGE
  
CITY           SKY/WX    TMP DP  RH WIND       PRES   REMARKS
STAMPEDE PASS  CLOUDY    52  41  66 CALM      30.22F                  
TROUTDALE, OR  FAIR      70  48  45 VRB3      30.17F                  
HOOD RIVER, OR FAIR      72  45  37 MISG      30.15F                  
THE DALLES, OR FAIR      71  44  37 CALM      30.14F                  
$$

WAZ026-027-041>044-520-521-182200-
EAST SLOPES
  
CITY           SKY/WX    TMP DP  RH WIND       PRES   REMARKS
OMAK           FAIR      65  44  46 S14       30.15F                  
WENATCHEE      PTSUNNY   64  43  46 SE7       30.15F                  
ELLENSBURG     FAIR      68  45  43 NE5       30.16F                  
YAKIMA         FAIR      69  45  41 S5        30.15F                  
SUNNYSIDE ARPT FAIR      73  50  45 SE5       30.14F                  
YAKIMA TC      FAIR      68  45  44 W5        30.14F                  
$$

WAZ028-034-035-182200-
COLUMBIA BASIN
  
CITY           SKY/WX    TMP DP  RH WIND       PRES   REMARKS
EPHRATA        FAIR      65  46  50 SW7       30.16F                  
MOSES LAKE     PTSUNNY   69  44  40 VRB7      30.17F                  
PASCO          FAIR      79  43  27 SW8       30.14F                  
RICHLAND ARPT  FAIR      76  45  33 S7        30.14F                  
HERMISTON, OR  FAIR      77  47  34 S6        30.14F                  
$$

WAZ036>038-182200-
NORTHEAST WASHINGTON
  
CITY           SKY/WX    TMP DP  RH WIND       PRES   REMARKS
SPOKANE GEIGER PTSUNNY   63  40  42 SE8       30.19F                  
SPOKANE FELTS  PTSUNNY   66  41  40 CALM      30.19F                  
FAIRCHILD AFB  MOSUNNY   63  44  51 SW5       30.19F                  
COEURDALENE,ID CLOUDY    59  40  49 VRB3      30.21F                  
DEER PARK      CLOUDY    58  40  51 CALM      30.21F                  
$$

WAZ029>033-182200-
SOUTHEAST WASHINGTON
  
CITY           SKY/WX    TMP DP  RH WIND       PRES   REMARKS
PULLMAN        FAIR      66  45  46 S9G18     30.22F                  
LEWISTON, ID   FAIR      70  46  42 CALM      30.19F                  
WALLA WALLA    FAIR      73  43  33 SW7       30.16F                  
PENDLETON, OR  FAIR      74  49  41 NW7       30.16F                  
$$